Thunder Bay, Ontario

9:09 AM EST on January 16, 2018 (GMT -0500)
Thunder Bay

Weather History for CYQT - August, 2013

Change the Weather History Date:

Tuesday, August 27, 2013

  Actual Average Record
Temperature  
Mean Temperature 71 °F -  
Max Temperature 80 °F 26 °F 87 °F (1999)
Min Temperature 62 °F 17 °F 39 °F (1996)
Cooling Degree Days 6    
Growing Degree Days 21 (Base 50)    
Moisture  
Dew Point 66 °F    
Average Humidity 86    
Maximum Humidity 100    
Minimum Humidity 60    
Precipitation  
Precipitation 0.00 in 0.02 in - ()
Sea Level Pressure  
Sea Level Pressure 29.89 in    
Wind  
Wind Speed 4 mph ()    
Max Wind Speed 9 mph    
Max Gust Speed -    
Visibility 10.2 miles    
Events Fog    
Averages and records for this station are not official NWS values.
T = Trace of Precipitation, MM = Missing Value Source: Averaged Metar Reports

Daily Weather History Graph

Daily Weather History Graph

Search for Another Location

Airport or City:

Trip Planner

Search our weather history database for the weather conditions in past years. The results will help you decide how hot, cold, wet, or windy it might be!

Date:

Astronomy

Aug. 27, 2013 Rise Set
Actual Time 7:08 AM EDT 8:48 PM EDT
Civil Twilight 6:35 AM EDT 9:21 PM EDT
Nautical Twilight 5:54 AM EDT 10:01 PM EDT
Astronomical Twilight 5:10 AM EDT 10:44 PM EDT
Moon No Moon Rise 2:41 PM EDT (8/27)
Length of Visible Light 14h 45m
Length of Day
13h 40m
Waning Gibbous, 57% of the Moon is Illuminated
Aug 27
Waning Gibbous
Aug 28
Last Quarter
Sep 5
New
Sep 12
First Quarter
Sep 19
Full

Hourly Weather History & Observations

Time (EDT) Temp. Heat Index Dew Point Humidity Pressure Visibility Wind Dir Wind Speed Gust Speed Precip Events Conditions
12:00 AM 69.8 °F - 66.2 °F 88% 29.93 in 15.0 mi NE 3.5 mph - N/A   Mostly Cloudy
1:00 AM 68.0 °F - 66.2 °F 94% 29.91 in 15.0 mi NE 4.6 mph - N/A   Scattered Clouds
2:00 AM 67 °F - 65 °F 93% 29.90 in 10 mi ENE 3.5 mph - -  
2:00 AM 66.2 °F - 66.2 °F 100% 29.90 in 15.0 mi ENE 3.5 mph - N/A   Scattered Clouds
3:00 AM 66.2 °F - 64.4 °F 94% 29.88 in 15.0 mi ENE 3.5 mph - N/A   Partly Cloudy
4:00 AM 66.2 °F - 64.4 °F 94% 29.87 in 6.0 mi Calm Calm - N/A   Partly Cloudy
4:46 AM 64.4 °F - 62.6 °F 94% 29.86 in 6.0 mi West 2.3 mph - N/A Fog Partly Cloudy
5:00 AM 62.6 °F - 62.6 °F 100% 29.87 in 3.0 mi WNW 5.8 mph - N/A   Scattered Clouds
6:00 AM 66.2 °F - 66.2 °F 100% - 2.0 mi North 2.3 mph - N/A   Mostly Cloudy
6:16 AM 66.2 °F - 66.2 °F 100% - 0.5 mi East 4.6 mph - N/A Fog Fog
6:49 AM 66.2 °F - 66.2 °F 100% - 2.0 mi East 4.6 mph - N/A   Mostly Cloudy
7:00 AM 64.4 °F - 64.4 °F 100% - 2.0 mi East 4.6 mph - N/A   Mostly Cloudy
7:16 AM 64.4 °F - 64.4 °F 100% - 0.8 mi East 3.5 mph - N/A   Overcast
7:22 AM 64.4 °F - 64.4 °F 100% - 0.5 mi East 3.5 mph - N/A Fog Fog
8:00 AM 66.2 °F - 66.2 °F 100% - 0.5 mi East 3.5 mph - N/A Fog Fog
8:25 AM 66.2 °F - 66.2 °F 100% - 1.0 mi East 3.5 mph - N/A   Mist
9:00 AM 66.2 °F - 66.2 °F 100% 29.91 in 1.5 mi ENE 5.8 mph - N/A   Overcast
9:10 AM 68.0 °F - 66.2 °F 94% 29.91 in 6.0 mi East 4.6 mph - N/A   Scattered Clouds
10:00 AM 71.6 °F - 66.2 °F 83% 29.90 in 10.0 mi East 6.9 mph - N/A   Partly Cloudy
11:00 AM 73.4 °F - 66.2 °F 78% 29.90 in 10.0 mi East 5.8 mph - N/A   Partly Cloudy
12:00 PM 75.2 °F - 68.0 °F 78% 29.90 in 15.0 mi ENE 8.1 mph - N/A   Mostly Cloudy
1:00 PM 75.2 °F - 68.0 °F 78% 29.91 in 15.0 mi East 9.2 mph - N/A   Scattered Clouds
2:00 PM 78 °F - 67 °F 60% 29.89 in 10 mi East 9.2 mph - -  
2:00 PM 78.8 °F - 66.2 °F 65% 29.89 in 15.0 mi ENE 9.2 mph - N/A   Scattered Clouds
3:00 PM 78.8 °F - 66.2 °F 65% 29.88 in 20.0 mi East 9.2 mph - N/A   Scattered Clouds
4:00 PM 78.8 °F - 66.2 °F 65% 29.88 in 20.0 mi East 9.2 mph - N/A   Partly Cloudy
5:00 PM 78.8 °F - 66.2 °F 65% 29.88 in 20.0 mi East 8.1 mph - N/A   Partly Cloudy
6:00 PM 80.6 °F 82.7 °F 66.2 °F 61% 29.88 in 20.0 mi East 4.6 mph - N/A   Partly Cloudy
7:00 PM 78.8 °F - 66.2 °F 65% 29.88 in 20.0 mi East 6.9 mph - N/A   Partly Cloudy
8:00 PM 73 °F - 65 °F 71% 29.89 in 10 mi NE 5.8 mph - -  
8:00 PM 73.4 °F - 66.2 °F 78% 29.89 in 20.0 mi NE 5.8 mph - N/A   Partly Cloudy
9:00 PM 68.0 °F - 64.4 °F 88% 29.91 in 15.0 mi NE 3.5 mph - N/A   Scattered Clouds
10:00 PM 66.2 °F - 64.4 °F 94% 29.92 in 15.0 mi ENE 3.5 mph - N/A   Mostly Cloudy